Simultaneous Nadir Overpasses (SNOs) Predictions

Prediction of SNOs between AQUA and METOP-B Satellite Orbit:

Table of predicted SNOs for the next 14.0 days since TLE Epoch: 7/17/2021
Index Date (AQUA) Time (AQUA) Lat,Lon (AQUA) SZA (AQUA ) Date (METOP-B) Time (METOP-B) Lat,Lon (METOP-B) SZA (METOP-B ) Distance(km) Time Diff (sec)
1 07/18/2021 06:08:18 -73.76, -97.73 127.16 07/18/2021 06:07:54 -73.75, -97.77 127.16 1.33 24
2 07/18/2021 06:57:47 73.82, 69.77 52.92 07/18/2021 06:58:32 73.84, 69.77 52.93 2.38 45
3 07/21/2021 00:52:56 73.09, 162.47 52.64 07/21/2021 00:51:50 73.02, 159.65 52.71 91.44 66
4 07/21/2021 01:42:34 -73.75, -31.28 126.64 07/21/2021 01:42:17 -73.76, -31.34 126.62 2.17 17
5 07/21/2021 02:32:03 73.87, 136.10 53.49 07/21/2021 02:32:54 73.85, 136.20 53.47 3.74 51
6 07/23/2021 20:27:16 73.35,-131.64 53.49 07/23/2021 20:26:07 73.28,-133.37 53.51 55.95 69
7 07/23/2021 21:16:49 -73.75, 35.16 126.08 07/23/2021 21:16:39 -73.77, 35.08 126.05 3.28 10
8 07/23/2021 22:06:19 73.87,-157.47 54.06 07/23/2021 22:07:17 73.86,-157.37 54.04 3.19 58
9 07/26/2021 16:01:37 73.62, -65.77 54.39 07/26/2021 16:00:25 73.53, -66.38 54.35 21.50 72
10 07/26/2021 16:51:06 -73.80, 101.48 125.41 07/26/2021 16:51:02 -73.78, 101.51 125.43 3.12 4
11 07/26/2021 17:40:35 73.87, -91.05 54.68 07/26/2021 17:41:40 73.86, -90.95 54.66 3.16 65
12 07/29/2021 11:35:55 73.73, 0.42 55.16 07/29/2021 11:34:44 73.74, 0.50 55.18 2.56 71
13 07/29/2021 12:25:22 -73.81, 167.90 124.75 07/29/2021 12:25:25 -73.78, 167.93 124.78 3.33 3



Historial Predications of SNOs between AQUA and METOP-B
